Regional Weather Roundup
Issued by NWS

Home | Current Version | Previous Version | Graphics & Text | Print | Product List | Glossary On
Versions: 1 2 3 4 5 6 7 8 9 10 11 12 13 14 15 16 17 18 19 20 21 22 23 24 25 26 27 28 29 30 31 32 33 34 35 36 37 38 39 40 41 42 43 44 45 46 47 48 49 50
000
ASUS44 KMEG 272010
RWRTN
TENNESSEE HOURLY STATE WEATHER ROUNDUP
NATIONAL WEATHER SERVICE MEMPHIS TN
300 PM CDT SAT MAY 27 2017

TNZ002-004-019-021-049-052-054-088>092-272100-
WEST TENNESSEE

CITY           SKY/WX    TMP DP  RH WIND       PRES   REMARKS
MEMPHIS INTL   PTSUNNY   85  74  69 SW16G23   29.88F HX  92
NWS MEMPHIS      N/A     87 N/A N/A MISG        N/A
JACKSON        MOSUNNY   87  74  64 SW13G21   29.88F HX  95
DYERSBURG        N/A    N/A N/A N/A MISG        N/A
COVINGTON      PTSUNNY   86  73  66 SW14G20   29.86F HX  93
UNION CITY     MOSUNNY   82  73  74 SW8G14    29.85F
BOLIVAR        MOSUNNY   86  73  66 S12       29.89S HX  93
PARIS          PTSUNNY   79  73  83 S12       29.87F
HUNTINGDON     PTSUNNY   81  75  83 SW9       29.88F
LEXINGTON      PTSUNNY   82  73  74 MISG      29.89F
SELMER         MOSUNNY   84  72  65 SW13G20   29.90F
SAVANNAH       PTSUNNY   86  73  66 SW13      29.90F HX  93
$$

TNZ008-025-027-028-033-062-065-066-272100-
NORTH MIDDLE TENNESSEE

CITY           SKY/WX    TMP DP  RH WIND       PRES   REMARKS
NASHVILLE      PTSUNNY   80  72  76 N9        29.91F THUNDER
PORTLAND       PTSUNNY   82  72  69 SW8G14    29.89F
CLARKSVILLE    PTSUNNY   82  71  69 SW9       29.88F
SMYRNA         PTSUNNY   85  71  63 SW15G23   29.90F HX  90
COOKEVILLE     PTSUNNY   79  70  73 SW3       29.93F
GALLATIN       MOSUNNY   81  72  74 VRB5      29.93F
CROSSVILLE     MOSUNNY   77  66  68 W8        30.00F
$$

TNZ061-075-076-078-094-096-097-272100-
SOUTH MIDDLE TENNESSEE

CITY           SKY/WX    TMP DP  RH WIND       PRES   REMARKS
FAYETTEVILLE   PTSUNNY   81  70  69 SW13G21   29.95F
TULLAHOMA      PTSUNNY   81  68  65 S12       29.96F
WINCHESTER     PTSUNNY   82  70  65 SW10        N/A
MCMINNVILLE    PTSUNNY   82  72  69 SW12      29.94F
COLUMBIA       PTSUNNY   82  72  69 SW14      29.90F
SHELBYVILLE    PTSUNNY   82  72  69 SW15      29.93F
$$

TNZ017-018-042-046-047-272100-
NORTHEAST TENNESSEE

CITY           SKY/WX    TMP DP  RH WIND       PRES   REMARKS
TRI CITIES     PTSUNNY   81  67  62 SW10      29.95F
ELIZABETHTON   PTSUNNY   81  66  61 W8        29.95F
$$

TNZ012-013-036-069-073-074-272100-
CENTRAL EAST TENNESSEE

CITY           SKY/WX    TMP DP  RH WIND       PRES   REMARKS
KNOXVILLE      CLOUDY    80  66  62 W13       29.96F
OAK RIDGE      MOSUNNY   82  67  60 VRB7      29.96F
DOWNTOWN KNOXV PTSUNNY   81  70  69 SW10      29.96F
GATLINBURG     PTSUNNY   81  66  61 W9        29.95F
MORRISTOWN     MOSUNNY   81  68  65 W13       29.95F
JACKSBORO      PTSUNNY   81  68  65 SW9       29.97F
$$

TNZ083-085-099-272100-
SOUTHEAST TENNESSEE

CITY           SKY/WX    TMP DP  RH WIND       PRES   REMARKS
CHATTANOOGA    PTSUNNY   85  66  53 SW15      29.96F
$$

SKY/WX REPORTED AS FAIR MEANS FEW OR NO CLOUDS BELOW
12 THOUSAND FEET.





USA.gov is the U.S. government's official web portal to all federal, state and local government web resources and services.